Location: Fontevrault
(47.1823°N, 0.0493°E)
Time: 15:00:35
(UTC+00:00)

Cosmos 1346 Rocket - Pass Details

Date: 16 June 2021
Orbit: 526 x 551 km, 81.2° (Epoch: 31 July)

Event Time Altitude Azimuth Distance (km) Brightness Sun altitude
Exits shadow 22:18:24 28° 129° (SE) 1,049 3.7 -15.8°
Maximum altitude 22:19:37 34° 93° (E) 913 3.7 -15.8°
Drops below altitude 10° 22:23:16 10° 28° (NNE) 1,829 6.0 -16.1°
Sets 22:25:34 0° 20° (NNE) 2,731 7.1 -16.3°
